Stations météo

réclame
Mon MeteoGroup
Hoogeveen aws, Pays-Bas (6279): Température de l'air & dewpoint: 24.09.2020 10:00:00 - 30.09.2020 10:00:00 (CEST)Hoogeveen aws, Pays-Bas (6279): Température de l'air 5cm: 24.09.2020 10:00:00 - 30.09.2020 10:00:00 (CEST)Hoogeveen aws, Pays-Bas (6279): Vitesse du vent & gusts: 24.09.2020 10:00:00 - 30.09.2020 10:00:00 (CEST)Hoogeveen aws, Pays-Bas (6279): Direction du vent: 24.09.2020 10:00:00 - 30.09.2020 10:00:00 (CEST)Hoogeveen aws, Pays-Bas (6279): reduced air pressure: 24.09.2020 10:00:00 - 30.09.2020 10:00:00 (CEST)Hoogeveen aws, Pays-Bas (6279): visibility: 24.09.2020 10:00:00 - 30.09.2020 10:00:00 (CEST)Hoogeveen aws, Pays-Bas (6279): Quantités de précipitations: 24.09.2020 10:00:00 - 30.09.2020 10:00:00 (CEST)
Date & Time tt [°C] td [°C] tt 5cm [°C] ff [km/h] ff [knt] fx [km/h] fx [knt] dd ppp [hPa] vv [km] rr [mm]
30.09.2020 10:00:00 14,5 13,5 14,9 14 8 18 10 S 1014,9 1,3 0,0
30.09.2020 09:00:00 13,7 13,5 13,8 11 6 18 10 S 1014,7 1,0 0,0
30.09.2020 08:00:00 13,2 13,2 13,2 11 6 14 8 S 1014,8 0,1 0,0
30.09.2020 07:00:00 13,0 12,9 13,0 7 4 14 8 S 1014,6 0,1 0,0
30.09.2020 06:00:00 12,8 12,7 12,9 7 4 14 8 S 1014,8 0,2 0,0
30.09.2020 05:00:00 12,8 12,6 12,7 11 6 14 8 S 1015,0 1,9 0,0
30.09.2020 04:00:00 12,7 12,3 12,7 7 4 18 10 S 1015,1 1,9 0,0
30.09.2020 03:00:00 12,5 12,3 12,3 7 4 14 8 S 1015,6 1,6 0,0
30.09.2020 02:00:00 12,4 12,4 12,3 7 4 14 8 SSE 1015,8 1,5 0,0
30.09.2020 01:00:00 12,7 12,6 12,6 7 4 14 8 S 1016,2 0,7 0,0
30.09.2020 00:00:00 13,2 13,2 13,2 7 4 14 8 SSE 1016,3 0,2 0,0
29.09.2020 23:00:00 13,3 13,3 12,7 7 4 11 6 S 1016,5 1,2 0,0
29.09.2020 22:00:00 12,7 12,7 12,4 4 2 4 2 SE 1016,6 6 0,0
29.09.2020 21:00:00 12,4 12,3 11,8 0 0 4 2 N 1016,3 9 0,0
29.09.2020 20:00:00 13,1 13,0 12,3 4 2 4 2 SSW 1016,1 1,8 0,0
29.09.2020 19:00:00 14,6 13,9 14,2 4 2 11 6 SSW 1015,9 6 0,0
29.09.2020 18:00:00 16,4 14,8 16,6 4 2 7 4 SW 1015,6 1,1 0,0
29.09.2020 17:00:00 15,7 14,8 15,9 7 4 14 8 WSW 1015,4 0,7 0,0
29.09.2020 16:00:00 15,1 14,4 15,2 11 6 14 8 W 1015,2 1,0 0,0
29.09.2020 15:00:00 15,1 14,8 15,7 7 4 11 6 SSW 1015,1 11 0,0
29.09.2020 14:00:00 14,0 13,9 14,4 4 2 11 6 S 1015,2 8 0,0
29.09.2020 13:00:00 13,0 13,0 13,3 7 4 11 6 S 1015,0 7 0,0
29.09.2020 12:00:00 12,3 12,3 12,6 7 4 14 8 S 1014,8 14 0,4
29.09.2020 11:00:00 12,0 12,0 12,2 7 4 14 8 S 1014,5 7 0,1
29.09.2020 10:00:00 11,7 11,6 11,8 11 6 18 10 S 1013,9 4,0 0,3
29.09.2020 09:00:00 11,4 11,1 11,5 11 6 14 8 S 1013,5 4,6 0,0
29.09.2020 08:00:00 11,3 11,0 11,4 11 6 14 8 S 1013,1 8 0,0
29.09.2020 07:00:00 11,3 10,9 11,3 7 4 18 10 S 1012,8 8 0,0
29.09.2020 06:00:00 11,3 10,9 11,3 11 6 18 10 S 1012,5 9 0,0
29.09.2020 05:00:00 11,2 10,8 11,2 7 4 14 8 S 1012,4 9 0,3
29.09.2020 04:00:00 11,2 10,8 11,2 7 4 14 8 S 1012,5 8 0,2
29.09.2020 03:00:00 11,1 10,8 11,1 7 4 14 8 S 1012,3 8 0,3
29.09.2020 02:00:00 11,1 10,8 11,1 7 4 18 10 S 1012,3 7 0,9
29.09.2020 01:00:00 11,3 10,7 11,2 14 8 18 10 SSW 1012,2 11 0,0
29.09.2020 00:00:00 11,2 10,6 11,2 11 6 18 10 SSW 1012,2 10 0,0
28.09.2020 23:00:00 11,3 10,9 11,2 7 4 18 10 SSW 1012,1 9 0,0
28.09.2020 22:00:00 11,6 11,3 11,7 7 4 18 10 S 1011,8 8 0,0
28.09.2020 21:00:00 11,9 11,5 11,9 11 6 22 12 S 1011,5 10 0,0
28.09.2020 20:00:00 12,1 11,5 12,1 11 6 22 12 SSW 1011,1 16 0,0
28.09.2020 19:00:00 12,4 11,9 12,4 11 6 22 12 SSW 1010,2 9 0,0
28.09.2020 18:00:00 12,4 12,3 12,6 11 6 18 10 S 1009,7 3,4 0,0
28.09.2020 17:00:00 12,3 12,1 12,6 11 6 18 10 S 1009,4 4,2 0,1
28.09.2020 16:00:00 12,4 12,2 12,6 11 6 22 12 S 1009,2 2,3 0,0
28.09.2020 15:00:00 12,3 12,0 12,6 14 8 22 12 SSW 1008,9 5 0,0
28.09.2020 14:00:00 12,4 12,0 12,7 14 8 25 14 SSW 1008,8 7 0,0
28.09.2020 13:00:00 12,4 12,2 12,8 11 6 18 10 S 1008,8 4,5 0,0
28.09.2020 12:00:00 12,1 12,0 12,4 14 8 18 10 SSW 1008,4 2,8 0,0
28.09.2020 11:00:00 11,9 11,7 12,2 11 6 14 8 S 1008,3 4,5 0,0
28.09.2020 10:00:00 11,9 11,7 12,1 11 6 18 10 SSW 1007,7 4,3 0,0
28.09.2020 09:00:00 11,7 11,4 11,8 11 6 14 8 S 1007,6 3,7 0,0
28.09.2020 08:00:00 11,6 11,5 11,6 11 6 14 8 SSW 1007,0 1,6 0,2
28.09.2020 07:00:00 11,5 11,3 11,6 7 4 14 8 S 1006,8 1,2 0,0
28.09.2020 06:00:00 11,5 11,3 11,6 11 6 18 10 SSW 1006,9 3,8 0,0
28.09.2020 05:00:00 11,3 11,2 11,4 11 6 18 10 SSW 1006,8 1,7 0,0
28.09.2020 04:00:00 11,2 11,1 11,3 11 6 18 10 SSW 1007,1 1,5 0,0
28.09.2020 03:00:00 11,4 11,2 11,5 11 6 14 8 S 1007,5 1,0 0,1
28.09.2020 02:00:00 11,5 11,2 11,6 11 6 18 10 WSW 1007,3 1,2 0,4
28.09.2020 01:00:00 11,8 11,1 11,8 11 6 14 8 SSW 1007,6 3,0 0,0
28.09.2020 00:00:00 12,2 10,9 12,2 7 4 11 6 S 1007,6 4,9 0,0
27.09.2020 23:00:00 12,1 11,2 12,1 4 2 7 4 WSW 1007,6 13 0,0
27.09.2020 22:00:00 12,1 11,1 12,1 4 2 7 4 W 1007,4 2,8 0,0
27.09.2020 21:00:00 12,3 11,3 12,3 4 2 7 4 S 1007,4 22 0,0
27.09.2020 20:00:00 12,6 11,0 12,6 4 2 7 4 S 1006,9 29 0,0
27.09.2020 19:00:00 13,0 10,9 13,1 4 2 11 6 S 1006,5 34 0,0
27.09.2020 18:00:00 13,3 10,2 13,5 7 4 14 8 SSE 1006,0 9 0,0
27.09.2020 17:00:00 13,7 10,6 13,9 7 4 11 6 SE 1005,7 16 0,0
27.09.2020 16:00:00 14,0 10,6 14,6 4 2 11 6 SSE 1005,0 12 0,0
27.09.2020 15:00:00 13,8 10,4 14,7 7 4 14 8 SSE 1004,6 59 0,0
27.09.2020 14:00:00 13,9 10,5 14,3 11 6 18 10 ENE 1004,5 75 0,0
27.09.2020 13:00:00 13,7 10,1 14,8 11 6 22 12 E 1004,1 75 0,0
27.09.2020 12:00:00 13,3 10,4 14,0 11 6 25 14 E 1003,8 75 0,0
27.09.2020 11:00:00 13,0 10,3 14,3 18 10 25 14 E 1002,8 75 0,0
27.09.2020 10:00:00 12,5 10,3 12,7 14 8 22 12 E 1002,2 74 0,0
27.09.2020 09:00:00 12,3 10,2 12,3 14 8 29 16 ENE 1001,0 75 0,0
27.09.2020 08:00:00 12,6 10,6 12,5 22 12 32 18 E 999,9 74 0,0
27.09.2020 07:00:00 13,3 11,6 13,1 18 10 32 18 NE 998,2 60 0,0
27.09.2020 06:00:00 13,9 11,5 13,7 22 12 47 25 NE 997,1 75 0,0
27.09.2020 05:00:00 16,1 13,5 15,8 32 18 50 27 NE 995,7 37 0,0
27.09.2020 04:00:00 15,8 14,6 15,7 25 14 47 25 N 994,8 23 0,0
27.09.2020 03:00:00 15,3 14,4 15,1 29 16 47 25 NNE 994,3 21 0,0
27.09.2020 02:00:00 14,3 13,8 13,9 29 16 47 25 N 994,0 10 1,1
27.09.2020 01:00:00 13,3 12,6 13,2 32 18 54 29 N 994,7 4,3 1,5
27.09.2020 00:00:00 13,8 13,2 13,3 25 14 47 25 N 994,8 7 4,9
26.09.2020 23:00:00 12,8 12,1 12,6 25 14 43 23 NNW 996,0 12 1,4
26.09.2020 22:00:00 12,5 11,7 12,5 25 14 40 21 NNW 997,3 13 0,3
26.09.2020 21:00:00 12,9 12,0 12,7 22 12 36 19 NNW 998,5 25 0,2
26.09.2020 20:00:00 12,5 12,1 12,3 18 10 25 14 NW 999,0 10 1,0
26.09.2020 19:00:00 12,3 10,9 12,2 18 10 25 14 WNW 999,3 18 0,1
26.09.2020 18:00:00 12,8 10,3 12,8 7 4 14 8 W 999,4 40 0,0
26.09.2020 17:00:00 14,1 9,3 14,1 11 6 18 10 NW 1000,0 36 0,0
26.09.2020 16:00:00 13,9 8,5 14,3 7 4 14 8 WNW 999,9 39 0,0
26.09.2020 15:00:00 14,0 7,1 15,3 11 6 18 10 NNW 1000,1 62 0,0
26.09.2020 14:00:00 13,1 7,6 14,0 11 6 18 10 NNW 1000,0 54 0,0
26.09.2020 13:00:00 12,6 7,6 14,2 11 6 22 12 NNW 999,5 31 0,0
26.09.2020 12:00:00 11,3 8,2 12,6 11 6 18 10 NNW 999,1 22 0,0
26.09.2020 11:00:00 10,2 8,2 11,2 11 6 14 8 NW 998,8 17 0,0
26.09.2020 10:00:00 9,7 7,7 10,2 7 4 7 4 N 998,2 17 0,0
26.09.2020 09:00:00 9,1 7,6 9,0 4 2 11 6 N 997,7 15 0,0
26.09.2020 08:00:00 8,2 7,2 8,1 7 4 14 8 NNE 997,1 13 0,0
26.09.2020 07:00:00 8,2 7,2 8,2 7 4 14 8 N 996,5 14 0,0
26.09.2020 06:00:00 8,8 7,3 8,8 11 6 14 8 NNE 996,1 18 0,0
26.09.2020 05:00:00 9,0 7,4 9,0 11 6 18 10 NE 995,8 27 0,0
26.09.2020 04:00:00 9,4 7,7 9,4 11 6 18 10 NE 995,4 27 0,0
26.09.2020 03:00:00 10,0 8,1 9,9 11 6 18 10 NE 994,9 30 0,0
26.09.2020 02:00:00 10,2 8,0 10,0 11 6 18 10 E 994,7 38 0,0
26.09.2020 01:00:00 10,2 8,1 10,0 14 8 22 12 E 994,2 39 0,0
26.09.2020 00:00:00 10,1 8,1 10,1 11 6 18 10 ESE 994,6 35 0,0
25.09.2020 23:00:00 10,5 7,8 10,4 11 6 22 12 ESE 994,4 73 0,0
25.09.2020 22:00:00 9,9 7,5 9,2 14 8 22 12 SE 994,0 75 0,0
25.09.2020 21:00:00 9,9 7,0 9,0 14 8 25 14 SSE 993,8 75 0,0
25.09.2020 20:00:00 10,6 6,9 9,6 14 8 25 14 SSE 994,0 75 0,0
25.09.2020 19:00:00 12,1 6,7 11,6 18 10 32 18 SSE 994,0 75 0,0
25.09.2020 18:00:00 12,6 7,9 12,4 18 10 43 23 S 994,1 74 0,0
25.09.2020 17:00:00 13,6 6,6 13,8 29 16 43 23 S 994,2 75 0,0
25.09.2020 16:00:00 13,2 7,3 13,4 25 14 40 21 S 994,5 74 0,0
25.09.2020 15:00:00 12,6 7,6 12,8 25 14 36 19 S 994,4 75 0,0
25.09.2020 14:00:00 12,1 7,8 12,4 18 10 36 19 S 994,9 71 0,0
25.09.2020 13:00:00 11,7 6,8 11,9 22 12 36 19 S 995,2 73 0,0
25.09.2020 12:00:00 11,7 6,4 12,2 25 14 40 21 S 995,3 74 0,0
25.09.2020 11:00:00 11,8 7,5 11,9 22 12 36 19 S 995,6 70 0,0
25.09.2020 10:00:00 10,9 7,8 10,5 22 12 40 21 SSW 995,0 61 0,0
25.09.2020 09:00:00 10,3 8,0 10,1 18 10 36 19 S 995,0 67 0,0
25.09.2020 08:00:00 10,1 8,5 9,4 18 10 32 18 SSW 994,9 72 0,0
25.09.2020 07:00:00 10,7 9,0 10,1 18 10 29 16 S 994,2 72 0,0
25.09.2020 06:00:00 11,7 10,3 11,4 14 8 29 16 S 994,1 55 0,0
25.09.2020 05:00:00 12,1 11,2 11,9 18 10 25 14 S 994,3 50 0,3
25.09.2020 04:00:00 12,2 11,6 12,1 14 8 29 16 S 994,6 32 1,4
25.09.2020 03:00:00 12,4 11,4 12,3 14 8 29 16 SSE 994,7 37 0,4
25.09.2020 02:00:00 12,2 10,6 12,0 11 6 22 12 SE 995,0 58 0,0
25.09.2020 01:00:00 12,2 10,1 11,8 11 6 18 10 SE 995,6 70 0,1
25.09.2020 00:00:00 12,0 9,6 11,5 7 4 18 10 SE 996,9 26 0,6
24.09.2020 23:00:00 13,0 8,2 12,4 7 4 18 10 SSE 997,7 66 0,0
24.09.2020 22:00:00 13,1 8,3 12,3 7 4 14 8 ESE 998,1 75 0,0
24.09.2020 21:00:00 13,5 8,2 12,4 7 4 14 8 SE 998,7 75 0,0
24.09.2020 20:00:00 14,6 7,7 13,7 11 6 22 12 S 999,3 75 0,0
24.09.2020 19:00:00 15,5 8,1 14,9 14 8 32 18 S 1000,0 75 0,0
24.09.2020 18:00:00 16,7 7,3 16,3 25 14 36 19 S 1000,4 75 0,0
24.09.2020 17:00:00 16,8 7,5 16,3 22 12 40 21 S 1000,7 75 0,0
24.09.2020 16:00:00 17,8 8,0 16,9 29 16 50 27 S 1001,0 75 0,0
24.09.2020 15:00:00 17,9 8,0 18,6 29 16 50 27 SSW 1001,4 75 0,0
24.09.2020 14:00:00 17,1 8,7 17,1 25 14 47 25 S 1001,3 75 0,0
24.09.2020 13:00:00 16,1 9,1 16,2 25 14 43 23 SSW 1001,7 74 0,0
24.09.2020 12:00:00 15,3 9,4 15,4 25 14 47 25 SSW 1002,1 - 0,0
24.09.2020 11:00:00 14,1 9,5 14,1 29 16 47 25 SSW 1002,5 69 0,0
24.09.2020 10:00:00 13,0 9,6 13,5 25 14 36 19 SSW 1001,7 62 0,0

tt = Température de l'air
td = dewpoint
tt 5cm = Température de l'air 5cm
ff = Vitesse du vent
fx = gusts
dd = Direction du vent
ppp = reduced air pressure
vv = visibility
rr = Quantités de précipitations

stations d'obs. à proximité